weather.gov     
National Weather Service

Regional Weather Roundup
NWS Homepage
This page is being discontinued on March 12, 2014.
The same data is available at this site. Please update your bookmarks.
Thank you, and we apologize for the inconvenience.
Please send an email to SR-SRH.Webmaster@noaa.gov with any concerns.


Current Version
Previous Version:    01  02  03  04  05  06  07  08  09  10  11  12  13  14  15  16  17  18  19  20  21  22  23  24  25  26  27  28  29  30  
   31  32  33  34  35  36  37  38  39  40  41  42  43  44  45  46  47  48  49  50  51  52  53  54  55  56  57  58  59  60  
[Printable]
835
ASUS43 KBIS 190320
RWRND

NORTH DAKOTA REGIONAL WEATHER ROUNDUP
NATIONAL WEATHER SERVICE BISMARCK ND
900 PM CST THU DEC 18 2014

NOTE: "FAIR" INDICATES FEW OR NO CLOUDS BELOW 12,000 FEET WITH NO
SIGNIFICANT WEATHER AND/OR OBSTRUCTIONS TO VISIBILITY.


NDZ001>003-009>011-017-190400-
NORTHWEST NORTH DAKOTA

CITY           SKY/WX    TMP DP  RH WIND       PRES   REMARKS
WILLISTON      CLOUDY    28  27  96 S5        29.94S
MINOT          CLOUDY    24  20  84 CALM      29.97F
MINOT AFB      CLOUDY    23  23  99 SE2       29.97F
$$

NDZ018>021-031>035-040>046-190400-
SOUTHWEST NORTH DAKOTA

CITY           SKY/WX    TMP DP  RH WIND       PRES   REMARKS
BISMARCK       CLOUDY    27  25  92 S3        30.03S
DICKINSON      CLEAR     23  20  88 S7        29.91F WCI  15
GARRISON         N/A     26  23  88 E3        29.96F
HETTINGER ARPT CLEAR     21  20  96 CALM      29.96F
$$

NDZ004>008-012>016-024-026-027-054-190400-
NORTHEAST NORTH DAKOTA

CITY           SKY/WX    TMP DP  RH WIND       PRES   REMARKS
GRAND FORKS    CLOUDY    20  15  81 S9        30.15S WCI   9
GRND FRKS AFB  CLOUDY    19  19  99 S10       30.14F WCI   8
DEVILS LAKE    CLOUDY    21  14  73 S10       30.03S WCI  10
$$

NDZ022-023-025-028>030-036>039-047>053-190400-
SOUTHEAST NORTH DAKOTA

CITY           SKY/WX    TMP DP  RH WIND       PRES   REMARKS
FARGO          CLOUDY    21  16  81 S12       30.16F WCI   9
JAMESTOWN      CLOUDY    23  21  92 S12       30.06F WCI  12
$$





U.S. Dept. of Commerce
NOAA National Weather Service
1325 East West Highway
Silver Spring, MD 20910
E-mail: w-nws.webmaster@noaa.gov
Page last modified: May 16, 2007
NATIONAL WEATHER SERVICE: for Safety, for Work, for Fun - FOR LIFE